Temp
78 82 83 75 68 70 67 69 77 74 74 80 83 78 77 76 74 68 80 83 85 84 85 83 77 77 77 77 77 77 77 77 77 77 77 77 77 76 76 76 76 76 76 76 76 76 75 75 75
80 80 80 73 64 62 67 75 72 77 79 80 79 77 75 70 72 68 73 83 85 83 85 83 76 77 77 77 77 76 76 76 76 76 77 77 76 76 76 75 75 75 75 75 75 74 74 74 74
78 78 74 69 65 63 67 73 78 74 77 79 75 78 75 69 70 72 79 84 85 84 86 81 76 77 77 76 76 76 76 76 76 76 76 76 76 75 75 74 74 74 74 74 74 74 73 73 73
77 76 74 64 63 70 74 76 77 72 74 77 80 71 74 76 73 75 79 84 84 84 86 77 76 77 76 76 76 76 76 76 75 75 75 75 75 74 74 73 73 73 73 73 73 73 73 72 72
76 73 63 60 65 72 76 77 77 74 76 76 79 69 66 75 78 74 80 83 83 84 84 81 76 76 76 76 76 75 75 75 75 74 74 74 73 73 72 72 72 72 72 72 72 72 72 71 71
66 69 60 57 64 71 74 76 76 76 77 75 73 71 68 75 72 76 81 82 83 83 83 82 74 74 75 75 75 74 74 74 73 72 72 72 71 71 70 70 71 71 71 71 71 71 70 70 69
63 62 60 64 65 68 72 77 75 74 74 74 78 70 66 68 76 79 81 82 83 82 79 77 79 75 72 73 73 73 72 72 71 70 69 68 68 68 68 68 69 69 69 69 69 69 69 68 68
66 63 61 62 64 65 74 74 79 76 73 78 79 70 61 68 77 79 80 80 76 76 77 78 77 78 77 75 70 70 70 69 68 67 65 65 66 67 67 69 66 67 67 67 68 67 67 66 66
66 58 57 61 63 68 74 70 73 74 72 72 73 77 79 73 77 76 73 70 69 73 77 78 78 77 77 76 71 69 67 66 67 67 64 70 75 74 73 63 64 65 65 66 66 66 65 65 67
61 57 59 66 66 68 70 72 68 70 70 68 69 71 75 75 75 71 66 65 66 73 75 77 78 77 77 76 75 75 74 75 75 76 74 76 74 71 70 65 62 63 63 65 65 65 66 69 74
61 56 63 63 65 66 66 68 72 71 66 72 70 66 68 72 72 67 67 67 72 75 75 75 77 78 77 76 75 76 75 75 74 73 74 74 75 74 74 73 72 72 66 72 71 72 72 72 73
54 60 62 62 63 64 64 69 68 72 71 80 76 69 69 68 67 67 67 70 72 68 69 69 76 75 76 76 77 76 76 76 75 73 72 74 74 73 73 73 71 71 71 71 71 72 72 72 72
56 59 63 64 63 64 66 65 69 69 67 74 74 69 68 68 67 69 72 74 73 67 67 67 74 74 72 73 73 74 73 75 73 72 72 74 73 72 72 71 72 71 71 71 70 71 71 71 71
58 59 61 63 62 64 62 65 64 70 67 69 69 67 69 68 69 69 70 71 69 71 70 68 71 73 72 71 71 73 73 72 73 73 71 70 71 71 70 71 70 70 70 71 71 70 70 70 70
57 54 58 61 63 62 63 60 62 65 66 64 67 66 67 67 70 68 72 70 68 67 66 66 67 72 72 70 70 71 71 72 72 72 71 70 70 69 68 70 69 69 70 70 70 70 71 70 70
53 54 50 61 63 63 61 57 67 64 60 59 63 64 64 65 67 73 74 68 68 66 66 65 66 68 71 71 70 71 71 72 71 72 72 69 69 68 69 69 69 69 69 69 69 68 68 68 68
48 46 48 53 62 62 60 59 62 63 61 59 60 62 62 62 65 74 71 68 67 67 65 64 64 66 70 70 70 70 69 71 71 71 71 69 69 69 70 69 69 69 68 68 67 67 66 65 66
41 44 48 50 57 59 59 58 59 61 58 60 59 61 62 62 64 72 67 67 67 66 65 63 63 65 70 69 69 69 69 69 70 70 71 68 70 68 68 70 69 68 68 68 67 66 67 65 65
47 47 48 54 57 57 58 59 63 58 57 58 58 59 60 63 70 69 67 65 65 64 63 62 61 62 67 69 69 69 68 68 68 68 67 68 68 67 68 69 68 68 67 66 66 65 64 65 65
47 45 48 53 55 54 58 57 62 59 56 60 59 58 61 65 68 65 64 64 63 64 63 61 61 60 64 65 70 72 70 69 69 67 67 67 67 66 67 67 67 67 66 66 65 64 63 65 64
46 45 48 49 52 54 56 54 56 59 58 57 58 59 60 64 67 66 65 64 66 63 62 62 61 63 62 63 66 66 65 65 65 65 66 66 66 65 64 65 66 66 65 65 64 63 61 61 64
42 51 49 47 46 41 51 42 56 60 57 57 59 57 60 62 66 70 69 66 68 66 65 62 61 60 61 63 67 67 67 66 68 67 66 66 65 65 64 63 64 64 65 64 64 65 63 62 60
45 48 49 49 45 45 47 42 54 56 55 59 62 64 66 68 67 66 67 69 70 68 65 65 61 61 65 66 67 67 66 67 66 66 64 65 65 64 63 63 63 63 64 63 62 62 62 63 61
50 48 47 46 43 35 46 43 47 53 58 63 66 65 67 69 69 70 70 69 67 67 65 65 65 65 65 65 65 65 65 64 63 64 64 65 65 64 62 62 63 63 63 62 63 62 61 62 61
47 45 32 31 32 35 31 37 50 60 59 66 65 66 68 70 69 68 69 66 66 63 63 63 64 63 64 64 64 64 64 64 64 63 63 62 64 63 62 61 62 63 62 61 62 61 60 60 60
45 45 36 28 31 37 37 38 48 61 61 63 64 69 70 69 69 67 68 66 65 63 63 63 63 63 63 63 62 62 62 62 62 62 62 62 62 62 61 61 61 61 61 61 61 61 60 60 59
42 39 46 38 36 37 44 49 55 59 57 58 60 61 62 65 67 65 64 64 64 64 63 63 63 63 62 62 60 60 60 59 59 59 60 60 60 60 60 59 59 60 60 60 59 60 60 60 60
44 46 38 38 30 30 41 42 44 51 57 61 59 60 63 63 65 66 65 63 65 65 64 64 63 62 60 60 60 59 59 59 58 58 57 57 58 58 58 58 59 59 59 59 59 60 60 59 60
41 41 41 43 42 35 35 41 53 51 59 62 61 59 60 61 60 60 61 63 63 63 62 61 61 59 57 58 58 57 57 57 57 57 57 57 57 57 57 57 57 57 57 58 59 58 58 57 57
46 47 47 38 36 38 37 40 54 54 52 52 55 57 58 58 60 60 60 60 59 59 59 58 58 57 57 57 57 56 55 55 56 56 56 56 56 56 56 56 56 56 56 56 56 56 56 56 55
MSLP
1016.17 1015.78 1015.49 1015.21 1014.12 1011.72 1009.80 1009.46 1009.43 1009.31 1009.84 1010.32 1010.71 1011.31 1011.61 1012.42 1012.85 1014.35 1015.45 1015.79 1016.03 1016.63 1017.37 1017.98 1018.54 1018.71 1018.88 1019.10 1019.24 1019.35 1019.39 1019.46 1019.52 1019.57 1019.57 1019.62 1019.64 1019.63 1019.69 1019.66 1019.59 1019.48 1019.36 1019.21 1019.08 1018.95 1018.79 1018.62 1018.45
1016.01 1015.58 1015.21 1014.30 1012.63 1010.42 1008.97 1009.15 1009.22 1009.28 1009.97 1010.89 1011.44 1011.93 1012.34 1013.49 1014.65 1015.54 1015.91 1016.00 1016.25 1016.90 1017.42 1017.93 1018.70 1018.88 1019.08 1019.26 1019.42 1019.54 1019.70 1019.75 1019.82 1019.90 1019.92 1019.93 1019.88 1019.82 1019.87 1019.84 1019.75 1019.66 1019.54 1019.42 1019.29 1019.11 1018.94 1018.79 1018.63
1016.01 1015.64 1014.03 1012.97 1011.34 1009.10 1008.26 1008.94 1008.94 1010.20 1010.82 1010.81 1011.53 1012.30 1013.03 1014.21 1015.37 1015.77 1015.95 1016.11 1016.46 1017.07 1017.50 1018.34 1018.82 1019.01 1019.21 1019.45 1019.67 1019.81 1019.94 1020.04 1020.11 1020.16 1020.10 1020.12 1020.13 1020.03 1020.00 1020.04 1019.95 1019.88 1019.75 1019.63 1019.48 1019.34 1019.14 1018.97 1018.82
1015.55 1015.03 1014.01 1011.92 1009.72 1009.24 1008.54 1008.92 1009.38 1010.46 1011.36 1011.48 1011.34 1012.56 1014.07 1015.02 1015.63 1016.19 1016.47 1016.37 1016.78 1017.22 1017.67 1018.75 1018.94 1019.13 1019.38 1019.67 1019.91 1020.00 1020.14 1020.23 1020.32 1020.34 1020.35 1020.32 1020.34 1020.30 1020.22 1020.21 1020.14 1020.06 1019.98 1019.84 1019.66 1019.49 1019.36 1019.21 1019.04
1015.50 1014.21 1012.59 1011.09 1009.71 1009.22 1009.33 1009.24 1009.65 1010.01 1010.58 1011.26 1011.61 1012.95 1014.58 1015.44 1015.91 1016.66 1016.53 1016.71 1016.95 1017.34 1017.93 1018.72 1019.05 1019.30 1019.58 1019.87 1020.12 1020.23 1020.35 1020.48 1020.56 1020.54 1020.56 1020.58 1020.67 1020.62 1020.50 1020.55 1020.46 1020.31 1020.22 1020.05 1019.82 1019.64 1019.51 1019.41 1019.22
1014.79 1013.63 1011.42 1010.07 1009.65 1009.57 1009.58 1009.70 1009.79 1010.07 1010.73 1011.46 1012.11 1013.06 1014.83 1015.93 1016.45 1016.64 1016.88 1016.98 1017.27 1017.58 1018.17 1018.71 1019.38 1019.62 1019.84 1020.12 1020.34 1020.46 1020.65 1020.78 1020.88 1020.90 1020.89 1020.94 1020.93 1020.96 1020.82 1020.79 1020.78 1020.59 1020.47 1020.29 1020.06 1019.85 1019.70 1019.53 1019.39
1014.21 1012.99 1011.02 1010.22 1009.70 1009.44 1009.56 1010.05 1009.83 1010.17 1010.75 1011.29 1012.00 1012.94 1015.22 1016.12 1016.35 1016.74 1017.05 1017.30 1017.47 1017.84 1018.29 1018.96 1019.43 1020.03 1020.24 1020.49 1020.60 1020.71 1020.95 1021.15 1021.21 1021.24 1021.30 1021.38 1021.34 1021.32 1021.11 1021.00 1020.97 1020.89 1020.74 1020.54 1020.29 1020.01 1019.81 1019.67 1019.53
1014.70 1013.56 1011.62 1011.02 1009.72 1009.41 1009.85 1010.11 1009.97 1010.30 1011.02 1011.88 1012.14 1012.50 1014.60 1015.64 1016.35 1016.94 1017.28 1017.58 1018.20 1018.41 1018.68 1019.11 1019.70 1020.02 1020.36 1020.76 1021.10 1021.14 1021.26 1021.43 1021.60 1021.60 1021.63 1021.64 1021.51 1021.51 1021.40 1021.09 1021.19 1021.07 1020.92 1020.63 1020.40 1020.18 1019.98 1019.80 1019.61
1015.34 1013.50 1011.55 1011.11 1010.47 1009.99 1010.39 1010.48 1011.01 1011.43 1011.44 1012.19 1012.66 1012.53 1013.20 1015.43 1016.21 1016.84 1017.50 1018.32 1018.64 1018.78 1018.94 1019.35 1019.67 1020.08 1020.45 1020.78 1021.33 1021.48 1021.62 1021.76 1021.77 1021.72 1021.81 1021.38 1021.21 1021.21 1021.18 1021.67 1021.48 1021.30 1021.07 1020.78 1020.52 1020.34 1020.14 1019.81 1019.37
1015.02 1013.45 1012.22 1012.04 1011.93 1010.94 1011.06 1010.76 1011.34 1011.34 1011.56 1012.33 1013.01 1013.82 1014.19 1015.34 1015.94 1016.62 1017.58 1018.19 1018.60 1018.65 1019.12 1019.32 1019.66 1020.07 1020.44 1020.80 1021.07 1021.21 1021.42 1021.48 1021.43 1021.40 1021.41 1021.29 1021.43 1021.60 1021.54 1021.70 1021.65 1021.40 1021.17 1020.88 1020.62 1020.43 1019.99 1019.38 1018.94
1015.19 1013.86 1013.26 1013.22 1012.85 1012.56 1011.92 1011.56 1011.52 1011.12 1011.18 1011.28 1012.01 1013.49 1014.63 1015.37 1016.01 1016.93 1017.58 1018.14 1018.24 1018.57 1019.01 1019.41 1019.63 1019.99 1020.29 1020.71 1021.00 1021.14 1021.33 1021.53 1021.62 1021.62 1021.53 1021.45 1021.40 1021.37 1021.24 1021.14 1021.06 1020.88 1020.91 1020.40 1020.20 1019.84 1019.57 1019.45 1019.09
1015.53 1014.93 1014.25 1013.78 1013.61 1013.20 1012.34 1011.81 1011.39 1011.24 1010.97 1010.80 1012.04 1013.58 1014.39 1015.29 1015.97 1016.69 1017.34 1017.76 1018.31 1018.96 1019.30 1019.71 1019.74 1020.06 1020.33 1020.66 1020.82 1021.14 1021.23 1021.40 1021.49 1021.74 1021.72 1021.50 1021.36 1021.32 1021.21 1021.14 1021.06 1020.90 1020.78 1020.57 1020.38 1019.92 1019.66 1019.46 1019.18
1015.56 1015.12 1014.64 1014.26 1014.05 1013.57 1012.85 1012.03 1011.56 1011.45 1012.11 1011.83 1012.54 1013.89 1014.48 1015.30 1016.01 1016.70 1017.19 1017.63 1018.24 1018.93 1019.43 1019.83 1019.81 1020.13 1020.60 1020.81 1021.11 1021.26 1021.42 1021.49 1021.78 1021.80 1021.86 1021.64 1021.51 1021.44 1021.36 1021.30 1021.14 1021.07 1020.91 1020.74 1020.40 1020.08 1019.72 1019.46 1019.16
1015.80 1015.39 1014.84 1014.37 1014.06 1013.66 1013.06 1012.26 1012.39 1011.92 1012.85 1012.71 1013.10 1013.92 1014.34 1014.85 1015.63 1016.29 1016.86 1017.54 1018.15 1018.61 1019.14 1019.83 1019.96 1020.14 1020.58 1020.81 1021.08 1021.21 1021.46 1021.70 1021.81 1021.84 1021.99 1022.00 1021.87 1021.69 1021.71 1021.44 1021.36 1021.16 1021.09 1020.87 1020.55 1020.25 1019.91 1019.52 1019.31
1016.38 1015.46 1014.76 1014.30 1013.90 1013.60 1013.34 1012.50 1011.86 1012.75 1013.04 1013.11 1013.17 1014.13 1014.67 1014.99 1015.46 1015.89 1016.44 1017.27 1017.89 1018.65 1019.27 1019.83 1020.07 1020.16 1020.36 1020.81 1021.13 1021.31 1021.56 1021.73 1021.79 1021.91 1022.07 1022.11 1022.05 1022.06 1021.95 1021.68 1021.44 1021.45 1021.30 1021.00 1020.65 1020.35 1019.95 1019.68 1019.46
1016.41 1015.61 1014.24 1013.45 1013.57 1013.48 1013.54 1011.61 1011.60 1013.11 1013.74 1013.85 1014.01 1014.19 1014.96 1015.12 1015.41 1015.63 1016.29 1017.21 1017.86 1018.62 1019.23 1019.80 1020.19 1020.18 1020.31 1020.66 1021.05 1021.27 1021.62 1021.72 1021.85 1021.98 1022.11 1022.20 1022.18 1022.22 1021.96 1021.71 1021.56 1021.64 1021.41 1021.13 1020.81 1020.58 1020.24 1019.97 1019.76
1016.76 1014.99 1014.26 1013.66 1013.42 1013.27 1013.22 1011.85 1012.36 1013.09 1013.74 1014.02 1014.33 1014.53 1014.75 1015.21 1015.48 1015.43 1016.39 1017.04 1017.72 1018.42 1019.17 1019.78 1020.16 1020.19 1020.22 1020.58 1020.98 1021.33 1021.65 1021.63 1021.78 1021.99 1022.05 1022.17 1022.21 1022.23 1021.96 1021.82 1021.75 1021.62 1021.42 1021.20 1021.00 1020.74 1020.58 1020.27 1020.05
1016.39 1015.56 1014.48 1013.53 1013.29 1013.06 1012.61 1012.37 1012.76 1013.25 1013.73 1013.94 1014.39 1014.50 1014.54 1014.78 1015.07 1015.47 1016.42 1016.95 1017.71 1018.38 1019.13 1019.78 1020.11 1020.19 1020.17 1020.65 1020.97 1021.22 1021.44 1021.64 1021.80 1021.82 1021.93 1022.12 1022.08 1022.18 1022.05 1021.89 1021.77 1021.70 1021.36 1021.19 1021.19 1021.01 1020.78 1020.66 1020.46
1016.70 1015.83 1014.64 1013.73 1013.49 1012.87 1012.29 1012.29 1012.22 1013.37 1013.81 1013.97 1014.25 1014.40 1014.53 1014.41 1014.72 1015.56 1016.26 1017.02 1017.74 1018.46 1019.12 1019.62 1020.03 1020.20 1020.27 1020.50 1020.68 1020.84 1020.90 1021.39 1021.64 1021.81 1022.00 1022.03 1022.04 1022.06 1021.96 1021.82 1021.78 1021.70 1021.50 1021.50 1021.46 1021.25 1021.01 1020.73 1020.68
1016.98 1016.11 1014.94 1014.22 1013.86 1013.30 1012.26 1012.14 1012.31 1013.03 1013.43 1013.66 1014.02 1014.38 1014.32 1014.40 1014.36 1015.38 1016.18 1016.89 1017.46 1018.06 1018.79 1019.40 1019.84 1020.28 1020.32 1020.47 1020.38 1020.47 1020.75 1021.17 1021.36 1021.74 1021.87 1021.97 1021.96 1022.01 1021.91 1021.83 1021.73 1021.68 1021.60 1021.56 1021.52 1021.45 1021.13 1020.88 1020.99
1016.87 1016.23 1015.24 1014.51 1014.15 1013.69 1012.71 1012.09 1012.25 1012.39 1013.07 1013.58 1013.79 1014.08 1014.25 1014.06 1014.10 1014.52 1015.62 1016.34 1017.09 1017.81 1018.38 1019.02 1019.45 1019.94 1020.27 1020.48 1020.53 1020.77 1021.07 1021.33 1021.49 1021.59 1021.66 1021.79 1021.90 1021.99 1022.03 1021.89 1021.77 1021.70 1021.72 1021.57 1021.61 1021.61 1021.58 1021.14 1020.99
1016.76 1016.18 1015.97 1015.38 1014.72 1013.66 1013.46 1011.58 1010.99 1011.49 1012.03 1012.60 1012.99 1013.39 1013.40 1013.93 1013.96 1014.04 1014.74 1015.68 1016.22 1017.13 1017.94 1018.65 1019.20 1019.70 1020.05 1020.29 1020.20 1020.20 1020.23 1020.39 1020.62 1021.05 1021.43 1021.57 1021.82 1021.86 1021.97 1021.95 1021.84 1021.74 1021.66 1021.65 1021.62 1021.58 1021.61 1021.46 1021.04
1016.69 1016.50 1015.94 1015.73 1015.20 1014.53 1013.60 1012.79 1010.43 1011.04 1010.87 1010.88 1011.28 1011.66 1012.13 1012.68 1013.11 1013.65 1014.14 1015.01 1015.69 1016.58 1017.33 1018.03 1018.80 1019.23 1019.55 1019.87 1019.93 1020.02 1020.08 1020.28 1020.74 1021.09 1021.29 1021.47 1021.62 1021.79 1021.88 1021.90 1021.84 1021.72 1021.67 1021.60 1021.63 1021.60 1021.57 1021.51 1021.39
1017.28 1016.73 1016.34 1016.18 1015.85 1014.97 1013.57 1013.00 1010.44 1009.86 1009.13 1009.51 1010.14 1010.80 1011.15 1011.59 1012.30 1012.91 1013.75 1014.50 1015.66 1016.38 1016.88 1017.52 1018.13 1018.53 1019.07 1019.51 1019.78 1019.90 1019.96 1020.26 1020.61 1020.90 1021.07 1021.31 1021.48 1021.59 1021.85 1021.91 1021.81 1021.75 1021.67 1021.63 1021.53 1021.54 1021.59 1021.53 1021.53
1017.42 1016.63 1016.37 1016.39 1015.81 1014.70 1014.49 1013.44 1009.93 1009.16 1009.19 1008.76 1009.28 1009.88 1010.25 1010.83 1011.65 1012.30 1013.08 1014.19 1015.01 1015.90 1016.23 1017.14 1017.70 1018.05 1018.64 1019.18 1019.58 1019.87 1020.08 1020.33 1020.52 1020.84 1021.04 1021.23 1021.33 1021.49 1021.68 1021.79 1021.74 1021.63 1021.69 1021.66 1021.59 1021.53 1021.50 1021.50 1021.47
1016.90 1016.34 1015.87 1015.48 1015.03 1014.49 1014.60 1011.79 1009.64 1009.26 1009.36 1009.44 1009.49 1009.30 1009.78 1010.25 1011.07 1011.86 1012.83 1013.50 1014.50 1014.98 1015.75 1016.72 1017.20 1017.68 1018.34 1018.92 1019.45 1019.92 1020.25 1020.47 1020.73 1021.01 1021.22 1021.34 1021.42 1021.55 1021.76 1021.75 1021.69 1021.65 1021.63 1021.54 1021.48 1021.40 1021.42 1021.49 1021.54
1017.10 1016.69 1016.42 1015.80 1015.66 1014.39 1012.38 1010.80 1009.89 1009.17 1009.06 1009.33 1009.22 1009.56 1009.70 1010.16 1010.84 1011.50 1012.42 1012.81 1014.14 1014.31 1015.13 1016.10 1016.76 1017.42 1018.12 1018.75 1019.41 1019.82 1020.21 1020.55 1020.78 1021.16 1021.39 1021.48 1021.63 1021.72 1021.72 1021.72 1021.59 1021.53 1021.46 1021.38 1021.30 1021.20 1021.19 1021.30 1021.36
1017.28 1017.01 1016.45 1015.86 1014.82 1013.45 1011.65 1010.69 1009.36 1008.80 1008.46 1008.67 1008.96 1009.07 1009.35 1009.94 1010.32 1010.92 1011.71 1012.76 1013.19 1013.93 1015.06 1015.74 1016.58 1017.24 1018.05 1018.72 1019.19 1019.66 1020.13 1020.55 1020.94 1021.21 1021.36 1021.52 1021.65 1021.74 1021.70 1021.60 1021.50 1021.43 1021.41 1021.38 1021.24 1021.16 1021.14 1021.12 1021.14
1017.06 1016.36 1016.02 1015.37 1014.52 1013.29 1011.61 1009.93 1008.94 1008.51 1008.28 1008.40 1008.69 1009.44 1009.79 1010.23 1010.63 1011.05 1011.70 1012.40 1013.21 1014.05 1014.78 1015.60 1016.50 1017.30 1018.03 1018.68 1019.18 1019.65 1020.15 1020.55 1020.86 1021.08 1021.29 1021.41 1021.55 1021.57 1021.58 1021.55 1021.47 1021.46 1021.46 1021.42 1021.32 1021.21 1021.23 1021.24 1021.19
1016.28 1015.40 1014.99 1014.62 1014.38 1013.88 1012.74 1010.01 1008.95 1008.99 1009.21 1009.43 1009.51 1009.69 1009.83 1010.15 1010.57 1011.07 1011.64 1012.44 1013.18 1013.97 1014.86 1015.53 1016.52 1017.28 1017.97 1018.55 1019.07 1019.55 1020.06 1020.42 1020.68 1020.93 1021.15 1021.32 1021.36 1021.48 1021.45 1021.48 1021.53 1021.57 1021.56 1021.48 1021.53 1021.66 1021.39 1021.32 1021.30
Wind_Speed
7 7 3 3 6 6 13 8 1 7 8 5 13 5 7 7 0 3 11 8 18 15 14 13 14 13 13 13 13 11 12 13 13 13 12 11 12 12 11 11 11 11 11 11 10 10 10 11 11
6 4 3 2 8 12 13 10 11 7 7 12 11 8 4 5 3 9 10 14 17 14 13 14 14 14 13 12 12 13 14 13 13 12 11 11 11 11 11 10 10 10 10 11 11 11 11 11 11
6 4 5 6 10 16 14 10 8 6 13 11 7 3 2 5 8 14 12 17 16 14 13 14 13 14 13 14 14 14 13 13 12 11 11 11 10 10 10 10 10 10 10 10 10 10 10 11 11
3 4 4 11 18 16 12 8 9 15 6 6 6 10 6 2 13 7 16 16 15 14 14 14 12 13 15 14 14 14 13 13 12 11 10 9 10 10 9 9 9 9 10 10 10 10 11 11 11
4 3 11 15 20 16 11 5 13 15 12 11 8 8 7 12 9 15 16 14 15 14 13 13 12 15 15 14 13 13 13 13 12 12 11 11 10 10 10 10 9 9 10 10 10 10 10 11 11
6 4 12 18 21 14 10 6 12 11 11 11 7 12 8 8 14 16 15 15 14 14 14 13 13 13 14 14 13 13 13 12 12 11 11 10 10 9 10 10 9 10 9 9 9 10 10 10 11
9 9 15 17 18 18 11 10 15 13 11 11 13 10 6 10 17 15 15 15 14 14 11 12 12 12 12 12 12 14 13 12 12 11 11 10 10 10 10 10 10 10 10 10 10 10 10 10 10
5 5 19 10 17 21 10 12 9 14 11 9 5 7 9 14 18 16 15 14 12 11 12 11 11 10 10 10 12 12 13 12 11 11 10 8 9 7 9 7 11 11 10 10 10 10 10 9 9
2 7 14 17 16 18 9 10 5 2 12 5 5 3 15 22 20 18 15 10 9 9 11 10 11 10 10 9 9 11 11 10 9 8 5 3 5 6 6 9 9 9 9 9 9 10 9 9 1
7 11 11 2 3 9 5 10 13 10 13 6 7 4 22 23 21 20 15 11 11 14 12 10 10 10 9 7 7 7 6 4 5 5 5 4 5 6 5 4 5 5 7 6 7 7 6 6 6
6 10 4 4 3 5 5 10 9 9 13 11 18 20 24 22 20 17 15 12 15 14 11 10 10 9 8 6 5 4 3 3 4 5 4 5 3 3 4 3 4 5 4 5 6 5 6 8 7
8 8 7 1 3 6 4 4 8 16 2 12 15 22 25 24 21 20 17 16 14 13 11 9 10 8 7 5 4 4 3 3 3 4 4 3 3 4 4 4 4 4 5 6 6 5 7 8 8
12 6 9 8 9 9 6 8 7 13 4 6 21 22 24 21 19 17 17 17 15 13 11 9 10 9 7 6 4 4 4 3 4 3 5 4 4 4 4 4 4 4 5 5 6 6 7 8 8
1 8 12 8 7 8 7 4 5 5 5 15 20 22 23 21 22 18 16 16 14 14 13 10 9 9 8 6 6 4 4 4 3 3 4 5 4 4 4 4 4 5 5 5 5 6 6 6 6
4 7 6 15 11 7 5 7 11 5 7 12 19 19 19 19 20 18 17 16 15 11 11 10 10 9 9 8 6 4 4 3 3 3 4 4 4 4 4 4 4 5 5 6 5 6 6 6 5
5 5 8 13 15 7 4 15 10 9 13 14 17 17 16 18 18 18 15 12 11 10 12 10 8 9 9 8 5 4 4 3 3 2 2 3 3 3 3 3 4 4 4 5 5 6 6 6 5
2 6 7 5 11 14 10 12 3 9 12 12 15 17 15 14 15 17 13 13 12 13 12 11 9 9 10 8 6 5 5 3 3 2 2 2 1 1 3 3 3 5 4 5 5 5 6 6 4
5 9 4 9 7 14 15 14 2 7 11 14 12 14 16 16 17 16 13 10 11 10 9 10 8 8 9 7 5 4 4 3 3 2 2 2 1 1 2 2 3 4 4 4 5 6 5 5 5
4 7 8 6 3 10 19 13 9 8 9 11 13 13 15 17 18 12 11 10 11 10 10 9 9 7 8 7 5 4 4 4 4 3 3 2 1 2 3 3 3 3 4 5 5 5 6 5 6
5 5 9 3 2 7 13 16 7 10 11 13 13 12 14 16 17 12 11 11 11 12 11 9 8 8 7 3 4 2 4 3 3 3 4 3 1 2 4 4 3 3 3 3 4 5 4 3 5
8 11 7 4 2 2 8 15 9 7 10 6 10 9 9 17 19 17 15 13 13 13 12 11 9 10 7 5 5 4 4 3 4 5 4 2 2 2 3 3 3 3 3 3 3 4 5 4 3
8 8 12 7 4 7 4 11 18 13 11 13 14 16 17 16 15 17 16 15 15 14 12 9 10 9 7 8 7 9 6 5 4 4 3 2 1 1 2 2 3 3 3 4 3 2 3 3 3
4 2 9 7 4 5 7 5 15 8 14 16 16 16 16 17 17 16 15 16 16 14 13 12 10 10 11 10 9 7 6 4 3 4 4 2 2 1 0 2 2 3 3 4 4 4 4 3 3
3 4 6 2 2 6 7 5 12 10 20 18 17 16 17 16 15 16 16 14 13 13 12 12 13 12 11 10 10 9 8 6 5 4 3 2 1 1 0 2 2 3 3 4 4 4 5 4 4
7 6 3 3 6 7 1 5 13 9 8 19 19 19 18 17 17 17 18 17 16 16 14 12 14 13 12 11 10 9 7 7 6 4 3 3 2 1 0 2 2 2 3 4 4 4 4 4 4
5 7 2 5 6 8 4 10 10 9 6 8 9 13 16 17 16 17 19 17 17 17 15 15 14 13 12 11 10 7 6 4 3 4 3 2 2 1 2 3 3 3 3 3 4 3 3 4 4
4 8 1 1 1 4 8 8 10 11 10 11 13 11 15 16 18 20 18 15 16 16 16 16 14 13 12 11 9 8 7 6 5 4 3 2 2 1 1 2 2 2 2 2 3 3 4 4 4
4 1 4 3 4 5 6 10 9 10 13 11 12 16 14 12 14 15 14 16 14 14 15 14 13 13 12 11 9 8 7 6 5 5 5 4 3 3 2 2 1 0 0 1 2 2 2 4 3
4 5 3 3 3 3 5 5 3 13 10 12 6 7 11 11 11 12 12 12 13 14 14 13 13 13 12 10 9 8 7 7 6 5 5 5 5 4 3 3 2 2 1 1 1 1 2 3 3
5 5 10 8 7 1 3 7 2 2 2 3 6 8 8 10 9 10 12 13 13 13 13 13 12 12 11 10 9 9 8 7 7 6 6 5 5 5 4 3 3 3 3 3 3 2 2 3 4
Wind_Direction
283 307 292 232 232 235 230 212 275 172 173 116 143 195 191 6 161 47 139 136 135 138 135 151 134 117 109 106 108 100 90 85 79 72 67 69 70 66 60 55 49 40 31 26 19 14 8 10 13
303 273 209 218 237 209 215 205 207 180 110 138 129 133 155 97 69 122 132 151 139 144 142 131 124 122 119 116 110 98 89 85 81 76 74 71 69 66 57 51 45 41 38 32 24 17 11 7 6
280 257 205 213 220 222 220 189 172 145 148 159 131 29 83 96 118 140 120 149 142 141 145 121 128 127 123 112 105 101 94 87 83 78 76 72 67 61 54 45 42 35 31 27 23 17 18 12 7
227 193 222 229 214 219 218 186 155 145 170 189 156 114 104 11 138 139 152 145 145 145 142 131 135 132 118 112 108 103 96 88 83 79 76 76 69 58 52 44 37 33 25 19 18 18 14 12 7
211 234 211 222 218 212 204 154 170 171 161 163 176 130 101 127 106 142 146 148 144 142 135 144 137 125 120 115 110 104 96 91 85 81 77 73 65 60 54 42 35 31 24 19 18 15 14 5 359
198 254 214 214 209 200 203 169 173 177 164 146 144 128 134 123 143 152 148 145 145 141 145 141 123 120 118 115 110 103 97 92 87 80 76 70 62 55 51 41 30 32 28 26 21 16 9 3 356
246 218 222 221 210 202 186 180 187 176 168 165 142 129 110 154 151 147 148 143 147 142 138 137 129 113 100 102 104 102 97 92 88 85 78 71 61 51 50 47 37 33 31 23 17 17 16 9 1
247 252 217 228 208 215 169 176 200 180 160 110 203 157 167 161 151 149 149 138 143 141 133 128 131 123 117 110 93 96 97 93 88 82 79 79 88 56 50 38 43 33 29 30 26 23 19 5 5
266 227 220 206 223 211 165 180 169 154 147 173 133 150 132 155 152 153 143 147 136 147 140 143 138 132 126 118 108 102 96 96 109 103 81 123 55 50 51 52 41 35 32 27 22 17 7 344 315
237 226 213 230 276 248 213 219 162 174 160 163 151 123 136 156 161 157 160 153 155 150 151 153 145 140 133 126 125 112 115 91 80 73 64 60 58 53 51 68 42 48 13 24 14 7 347 330 353
197 237 163 193 30 325 264 213 180 201 190 181 180 154 157 162 161 165 164 158 166 159 155 158 149 145 138 134 134 128 121 116 93 75 53 56 54 34 43 35 25 14 9 13 359 4 14 360 354
241 235 260 306 358 328 304 309 211 202 63 184 165 159 159 166 168 171 168 173 162 166 157 156 152 147 136 133 132 126 130 116 100 82 63 34 39 35 33 29 21 17 13 7 4 359 3 357 356
225 239 256 266 299 301 304 239 227 223 9 165 146 164 166 170 168 172 173 175 166 165 161 162 159 143 137 132 131 126 117 101 103 93 59 38 42 32 25 24 24 17 5 6 0 358 358 356 360
350 239 250 265 288 292 297 257 202 183 157 160 157 175 174 170 171 173 173 174 176 170 161 157 161 148 147 141 142 133 129 121 108 94 74 62 42 28 18 23 21 19 9 1 355 1 358 359 4
283 259 229 237 248 280 319 227 219 121 166 172 166 175 178 173 177 181 178 177 171 170 152 158 151 155 150 142 142 139 129 130 118 98 87 75 52 35 20 15 20 15 6 359 2 5 3 5 12
251 250 243 206 221 241 278 224 186 152 171 189 180 172 176 178 179 187 178 176 163 150 159 154 155 159 152 149 149 137 136 142 130 117 127 96 69 30 21 11 23 12 6 6 5 11 3 9 14
265 255 223 247 220 218 220 229 162 163 186 188 189 182 176 172 183 187 181 172 164 160 156 159 159 162 156 149 142 140 142 152 138 159 164 126 82 22 356 6 12 3 12 16 6 7 6 6 5
233 232 225 236 181 209 225 249 242 201 201 197 194 188 182 177 188 183 176 159 159 154 153 155 163 164 157 149 146 147 157 167 174 175 172 178 186 296 309 327 348 356 1 16 4 2 7 6 352
217 262 253 234 175 220 218 246 247 207 217 208 201 199 191 185 183 180 169 157 152 150 159 164 162 168 167 167 165 178 186 180 182 182 178 182 194 286 284 300 311 337 352 5 1 353 358 8 353
245 253 233 256 221 240 200 233 243 208 228 219 206 204 202 188 178 173 163 167 172 172 172 169 171 173 181 178 167 168 162 186 176 176 173 159 310 302 296 290 296 300 308 344 3 9 346 7 9
231 247 237 288 120 205 219 233 227 218 216 224 232 224 219 198 190 179 177 181 180 180 179 178 178 182 177 171 153 141 134 146 185 188 181 185 283 292 289 284 286 287 284 307 337 355 360 347 13
260 227 245 274 295 223 241 228 220 218 224 220 211 206 205 199 204 196 186 188 187 190 180 171 175 170 176 185 191 196 205 201 191 181 175 215 227 273 284 297 294 284 271 273 288 301 322 319 345
261 277 218 239 246 267 187 238 226 205 222 221 210 204 201 198 197 199 200 198 190 180 182 179 171 176 188 196 204 203 209 194 168 182 202 201 191 218 52 327 299 281 267 266 268 265 272 299 310
301 160 137 141 245 244 227 254 231 204 219 214 204 204 203 203 203 205 196 191 193 182 175 176 182 187 188 195 200 206 205 189 188 195 209 206 207 184 113 324 300 286 279 275 274 269 267 289 298
211 222 119 197 214 237 349 230 246 214 239 214 206 209 209 206 204 202 197 191 188 185 174 179 185 186 187 191 194 199 200 195 204 198 206 207 218 209 68 329 311 303 300 280 275 268 265 263 276
193 205 244 220 208 209 173 236 228 253 272 241 233 234 221 214 209 203 204 195 193 183 177 184 187 185 184 186 186 184 179 183 183 187 193 207 227 248 319 306 300 303 290 282 274 271 274 275 264
169 211 37 244 114 254 213 247 276 250 248 235 228 218 220 212 206 202 199 188 193 182 182 186 184 183 182 179 170 168 166 171 174 168 178 181 184 217 272 288 291 282 279 283 273 267 270 266 268
269 126 186 206 239 240 229 255 242 212 229 221 225 226 225 218 215 209 197 195 190 183 183 180 183 179 172 170 168 165 162 161 154 167 173 170 158 179 188 184 187 140 33 321 278 265 265 268 263
175 210 219 292 269 273 280 254 241 228 218 236 243 251 255 238 221 210 204 196 189 182 176 175 173 168 167 165 162 160 156 158 161 166 166 170 167 167 160 143 128 111 106 55 327 348 332 297 294
290 238 213 225 209 234 301 276 166 245 282 297 282 282 275 247 229 211 197 187 182 179 175 169 168 169 165 165 161 159 156 161 166 169 168 172 167 165 154 140 127 107 84 62 39 359 2 339 328